CAPE
1658 1936 2459 2449 2300 2088 2219 2289 2178 2265 2441 2205 2023 2142 2272 2182 2275 2288 2165 1701 1601 1504 1200 1106 964 996 860 650 670 647 670 650 695 425 388 712 741 744 699 777 842 911 898
1113 1388 1376 1432 2077 2280 2397 2336 2233 2071 2080 2186 2082 2089 2177 2151 2074 2157 1957 1446 1341 1228 1269 1313 1270 1447 1244 1036 757 754 570 483 616 651 489 604 664 625 684 709 807 784 912
1105 982 980 1165 1027 1256 1937 2005 1860 1963 1942 1936 1994 2042 2154 2030 2009 1889 1496 1439 1341 1376 1574 1643 1622 1591 1429 1074 759 739 868 920 745 712 530 550 385 523 525 532 606 785 687
1042 987 1119 1086 1072 1235 1226 1597 1871 2007 1937 1941 2022 1934 2042 2035 1994 1809 1512 1504 1834 1910 1939 1948 1911 1467 1492 1146 911 709 901 943 705 553 450 392 286 312 422 383 333 410 461
985 1038 955 795 935 1179 1368 1192 1550 1860 1946 1880 2116 2032 1874 1994 2016 1792 1601 1604 1626 1955 2010 2211 1922 1077 1027 883 798 942 890 845 498 351 381 373 285 237 222 260 275 103 350
1075 999 813 675 688 673 922 1422 1630 1633 1835 1703 1789 1967 2051 1965 1756 1460 1327 1495 1636 1597 1915 2202 1279 803 592 502 796 747 1071 837 602 395 423 245 358 300 208 136 99 202 108
887 1088 1019 341 254 433 420 487 486 409 423 572 654 779 1093 1325 1198 1082 1048 1383 1544 1749 1875 1969 940 502 812 963 583 420 498 351 483 774 398 315 343 350 238 303 258 194 129
891 823 877 754 610 540 223 336 324 234 80 0 15 25 69 187 35 0 181 693 1173 1347 1601 1538 792 901 1269 1074 848 671 582 554 400 333 548 562 568 476 498 355 400 324 267
494 557 539 714 587 495 557 472 452 425 463 460 203 91 98 111 3 1 0 89 528 1109 1407 1552 967 1202 1122 729 887 796 621 607 445 238 230 298 282 269 336 394 226 279 86
100 119 225 374 334 314 308 176 345 286 259 186 244 181 96 126 40 11 5 244 458 869 871 944 470 360 508 376 731 774 668 546 389 465 328 229 205 268 104 312 249 219 189
142 147 149 84 8 115 279 9 10 140 107 264 213 78 73 20 95 10 0 93 349 687 736 442 302 86 152 114 228 835 340 369 375 370 458 407 404 436 478 301 376 347 256
128 73 121 142 98 64 291 169 204 144 66 9 3 0 0 1 0 0 0 0 30 58 171 92 67 0 13 18 21 56 5 52 87 210 207 509 432 455 462 466 504 532 543
108 107 104 120 131 111 133 202 275 87 22 10 2 2 3 3 3 0 0 0 0 23 179 62 0 0 0 0 0 0 0 1 10 16 74 416 439 515 545 739 585 561 550
122 35 40 52 83 236 20 7 89 164 25 2 0 0 0 1 0 2 3 2 0 0 0 0 0 0 1 0 0 0 0 1 3 8 57 111 101 84 71 111 117 316 312
32 0 0 0 8 31 0 0 0 0 0 6 7 5 1 0 0 0 0 0 0 0 0 1 1 1 2 2 1 1 0 2 1 1 8 18 14 20 11 18 14 155 196
19 0 2 7 6 1 3 0 0 0 0 0 0 0 0 0 0 0 0 0 0 0 0 2 18 2 4 7 4 0 0 0 0 0 0 0 1 32 80 113 138 152 132
32 0 1 0 4 0 0 1 12 0 0 0 0 0 0 0 0 0 0 0 0 0 4 4 4 2 9 11 11 17 16 20 18 22 22 48 39 60 39 40 42 70 80
0 0 0 4 3 7 0 0 0 2 5 2 0 0 0 0 0 0 0 0 0 0 0 1 5 3 3 1 2 1 2 0 3 4 4 0 2 9 11 29 24 51 69
5 18 18 12 19 5 10 0 0 0 4 13 0 0 0 0 0 0 0 0 0 0 0 0 1 2 1 1 1 1 1 1 3 6 3 1 0 0 11 16 32 33 18
2 0 0 15 29 17 16 31 31 28 24 24 19 29 1 0 30 41 1 0 0 2 2 0 0 0 2 1 1 3 1 2 1 1 2 2 1 2 8 4 5 1 5
1 15 0 2 16 10 6 21 38 38 41 25 51 19 0 34 20 25 23 1 0 0 0 0 0 0 0 1 2 1 0 0 1 2 2 3 3 3 0 6 13 12 3
0 2 15 12 12 4 3 4 10 30 41 45 58 5 0 11 36 27 22 23 14 2 5 2 7 5 1 0 0 1 2 0 0 1 6 6 11 11 4 7 8 7 3
0 0 16 20 9 0 3 0 0 0 0 0 0 3 4 5 27 17 15 14 21 13 9 4 6 15 15 7 5 2 11 7 4 3 9 19 4 17 15 12 20 16 12
2 4 25 23 12 11 10 2 1 0 0 0 0 0 0 2 7 23 33 46 50 40 28 16 9 20 20 0 6 1 0 0 0 4 8 15 3 8 8 6 6 13 21
0 0 6 19 18 13 5 0 6 2 1 0 0 0 0 0 5 21 42 27 40 39 42 44 40 32 2 0 0 0 0 0 0 0 0 8 13 12 25 27 31 42 42
0 0 0 5 11 14 3 0 1 3 3 6 3 1 0 0 0 0 3 40 62 50 24 22 16 47 35 7 0 0 0 0 0 0 0 0 7 10 8 55 51 25 15
CIN
-71 -37 -1 -4 -4 -11 -23 -39 -12 -2 -1 -17 -18 -6 -11 -11 -2 0 0 -17 -34 -24 -25 -28 -23 -11 -2 -2 -1 -2 -2 -2 -1 -15 -2 -8 -2 -1 -2 -1 0 0 -2
-90 -56 -51 -97 -10 -1 -10 -21 -5 -2 -4 -4 -12 -14 -15 -10 -6 0 -1 -26 -40 -54 -32 -17 -14 -1 0 0 -4 -2 -2 -7 -1 -1 -2 -3 -1 -1 -1 0 0 0 0
-54 -66 -63 -48 -145 -78 -7 -5 -17 -6 -10 -6 -5 -4 -3 -9 -2 -2 -18 -20 -35 -52 -22 -16 -9 0 -4 -4 -12 -7 0 0 -1 0 -1 -2 -4 -1 -1 -2 -1 0 0
-45 -61 -37 -41 -49 -38 -50 -8 -3 -5 -11 -3 -1 -4 -3 -1 -1 -1 -7 -7 -1 -3 -4 -4 -3 -12 -8 -22 -19 -23 -1 0 -1 -1 -1 -1 -8 -3 -4 -1 -5 -3 0
-26 -31 -37 -73 -49 -31 -17 -45 -10 -1 -10 -18 -1 -1 -7 -2 -1 -4 -1 -1 -2 -1 0 0 -1 -35 -39 -40 -57 -24 -2 0 -18 -47 -6 -3 -2 -1 -20 -2 0 -10 -1
0 -6 -20 -58 -60 -123 -104 -6 -3 -2 -2 -10 -5 -1 -1 -1 -4 -25 -6 -1 -1 -2 0 0 -15 -41 -61 -101 -41 -55 -15 -2 -14 -44 -34 -30 -7 0 -6 -19 -19 -1 -2
-2 0 -1 -101 -145 -92 -143 -161 -186 -226 -263 -198 -164 -144 -65 -27 -26 -31 -38 -7 -3 -1 -2 -1 -36 -26 -13 -2 -61 -74 -67 -92 -16 0 -27 -50 -7 -2 -1 -1 -2 -5 -4
0 -1 -2 -1 -4 -17 -101 -83 -160 -208 -360 -1 -204 -171 -305 -279 -313 0 -232 -30 -1 -2 -1 -3 -37 -5 -8 -1 -1 -27 -32 -29 -58 -18 -6 -6 -14 -4 -1 -1 -1 0 -2
-14 -11 -14 -2 0 0 0 -13 -16 -55 -74 -78 -158 -203 -218 -208 -316 -134 0 -205 -18 -1 0 0 -8 -4 -7 -19 -1 -1 -9 -41 -23 -61 -16 -23 -35 -50 -16 -3 -2 0 -16
-61 -77 -52 -10 -23 -8 -16 -63 -29 -58 -76 -110 -94 -113 -166 -142 -244 -344 -280 -88 -26 -7 -10 -1 -34 -31 -19 -21 -4 -1 -2 -11 -2 -3 -21 -16 -56 -16 -92 -25 -4 -1 -1
-3 -25 -38 -60 -83 -33 -1 -78 -106 -72 -93 -50 -73 -160 -190 -297 -197 -242 0 -141 -7 -1 0 -20 -47 -92 -48 -36 -32 -3 -17 -12 -8 -5 -1 -1 -2 -4 -1 -20 -3 -3 -2
-4 -19 -28 -25 -33 -39 -1 -11 -31 -22 -40 -152 -78 0 0 0 0 0 0 0 -59 -69 -13 -41 -37 0 -81 -89 -69 -56 -34 -43 -21 -6 -6 -2 -2 -2 -2 -1 -1 -1 -1
-6 -2 -9 -16 -16 -19 -6 -16 -5 -28 -84 -164 0 0 0 0 0 0 0 0 0 -92 -1 -11 -6 0 0 0 0 -8 0 -7 -51 -35 -13 -3 -2 -2 -3 0 -5 -1 -24
-11 -5 -11 -6 -8 -1 -1 -2 -7 -4 -26 -1 0 0 0 0 0 0 0 0 0 0 0 0 0 0 0 0 0 0 0 -55 -65 -60 -15 -11 -23 -95 -29 -44 -26 -3 -1
-28 0 0 -1 -12 -4 0 0 0 0 0 -3 -2 -2 -3 0 0 0 0 0 0 0 0 0 0 0 0 0 0 0 0 0 -18 -31 -40 -58 -53 -49 -63 -56 -32 -1 0
-34 0 -1 -2 -1 -1 -2 0 0 0 0 0 0 0 0 0 0 0 0 0 0 0 0 -3 -6 -1 0 0 0 0 0 0 0 0 0 0 -93 -58 -30 -9 -3 -6 -8
-37 0 -1 0 -1 0 0 -2 -1 0 0 0 0 0 0 0 0 0 0 0 0 0 -1 -1 -1 -4 0 0 0 0 0 0 -1 0 -21 -2 -2 -56 -73 -51 -7 -50 -48
0 0 0 -18 -3 -1 0 0 0 -1 -1 -1 0 0 0 0 0 0 0 0 0 0 0 -1 0 0 0 0 0 0 0 -1 0 0 -2 0 -1 -1 0 -1 -1 -1 0
-2 -8 -21 -21 -9 -2 -1 0 0 0 -1 -2 0 0 0 0 0 0 0 0 0 0 0 0 -1 0 -1 0 0 0 0 0 -1 0 -1 -2 -2 0 -3 -4 -1 -3 -10
-2 0 0 -10 -2 -1 -2 0 -1 -2 -1 -1 -2 -1 -8 -4 -10 -2 -1 0 -1 -2 -2 0 0 -1 0 -1 -1 -1 -1 -1 0 0 0 0 0 -1 0 0 0 0 0
-1 -1 0 -2 -3 -1 -1 -1 0 -2 -1 0 -1 -23 0 -8 -3 -2 -2 -1 0 0 0 0 0 0 0 -1 -1 -1 0 -1 0 -1 -1 -2 0 -1 0 0 0 0 0
0 -2 -1 -2 -2 -1 -2 -2 -2 -2 -2 -2 -2 -15 0 -36 -1 -1 -2 -1 -2 -1 -2 -1 -1 -2 -1 -1 0 -1 -2 0 0 -1 -1 -2 -1 -1 -1 0 -1 0 0
0 0 -1 -2 -2 0 -2 0 -1 0 0 0 0 -1 -1 -4 -2 -1 -2 -2 -1 -1 -1 -1 -2 -2 -1 -1 -1 -1 -1 -1 -1 -1 -2 -1 -4 -1 -1 -1 -1 -1 -1
-1 -1 -1 -2 -1 -3 -2 -2 0 0 0 0 0 0 0 -2 -1 -2 -2 -1 -2 -1 -1 0 -1 -1 -1 0 -1 -1 0 0 0 -1 -1 -2 -3 -4 -3 -3 -3 -1 -1
0 0 -2 -3 -1 -1 -2 -1 -2 -2 0 0 0 0 0 0 -1 -2 -2 -1 -1 -1 -1 -2 -2 -2 -1 0 -3 0 0 0 0 0 0 -1 0 -1 -2 -4 -3 -2 -1
0 0 0 -2 -1 -2 -3 -1 -2 -2 -3 -3 -3 -1 0 0 0 0 -2 -1 -3 -2 -1 -3 -2 -1 -1 -3 0 0 0 0 0 0 0 0 -1 -3 -3 -1 -2 -3 -2
Wind_Speed
31 31 31 30 32 36 36 40 36 26 24 21 20 18 15 14 14 15 16 14 13 14 11 8 9 11 15 19 11 9 7 7 8 17 18 19 21 20 22 19 16 13 13
31 31 31 31 35 36 36 37 37 31 28 24 23 22 18 15 14 15 15 15 15 15 12 9 8 8 11 11 7 3 4 6 6 12 19 25 11 15 16 18 15 14 12
30 31 31 31 34 38 37 36 35 34 31 27 24 25 21 19 16 15 15 15 15 15 11 8 8 6 4 6 3 7 4 7 9 14 16 17 17 13 11 15 17 15 14
31 31 31 29 33 36 37 35 34 32 33 28 25 27 26 23 19 17 15 14 15 13 10 8 8 7 6 4 2 3 3 5 7 14 16 15 12 14 13 11 17 16 12
29 30 31 29 29 34 37 37 36 34 32 29 28 26 25 26 23 21 19 15 14 14 11 10 9 8 6 4 3 4 5 6 10 13 15 15 15 12 13 15 11 16 16
28 28 27 27 27 26 28 32 34 34 33 30 30 28 26 26 27 24 22 20 19 17 15 13 12 10 9 8 7 8 6 6 10 11 12 12 13 13 13 13 12 13 14
27 27 24 24 23 24 22 25 27 28 27 28 28 28 28 28 28 28 26 23 23 19 18 15 13 13 12 11 10 10 10 8 12 13 12 12 14 12 14 12 13 13 12
24 24 23 22 20 21 23 25 25 25 25 26 27 27 27 28 29 30 30 29 29 26 21 19 15 15 13 13 14 12 12 11 9 12 15 13 13 14 13 14 14 13 13
23 22 22 21 20 19 20 20 23 26 26 28 27 28 30 31 29 28 27 28 28 28 23 20 20 18 16 15 17 18 15 16 14 12 17 18 17 14 14 14 14 14 16
20 19 18 18 18 19 19 21 20 20 23 24 24 25 26 28 27 28 28 28 26 25 25 22 24 22 19 16 20 20 23 20 19 15 14 15 18 18 15 14 17 18 20
17 16 16 17 17 18 19 19 19 20 19 21 22 22 23 24 28 26 26 26 26 27 25 22 23 22 19 19 17 23 26 25 21 23 17 15 15 18 19 18 18 20 22
16 16 17 16 16 17 18 17 15 14 15 16 17 19 21 23 24 25 24 23 25 23 26 25 25 22 21 20 24 28 27 25 26 25 23 22 21 21 23 23 22 22 21
17 18 17 17 17 17 16 16 15 13 13 14 15 17 17 18 18 18 19 18 20 21 21 20 16 15 16 17 19 22 22 24 25 29 29 23 22 24 24 27 26 26 27
20 19 18 18 17 16 15 15 14 14 13 12 11 12 14 16 16 16 16 14 13 11 13 15 16 16 20 19 19 17 19 21 22 24 27 28 26 28 30 28 32 33 32
20 20 20 18 16 15 15 15 15 15 14 13 12 11 12 13 14 15 15 13 12 12 10 10 13 16 17 18 19 18 19 17 18 21 24 29 31 34 35 37 31 29 31
21 20 19 19 17 17 16 13 14 14 13 13 13 13 13 13 13 13 13 13 13 12 13 12 13 15 16 16 19 19 19 18 20 20 21 18 27 30 29 25 21 27 29
21 21 20 19 18 19 18 16 11 13 13 12 12 12 13 13 14 14 14 13 13 15 14 13 14 13 13 14 15 16 16 17 19 18 17 19 18 18 20 22 23 24 26
19 19 20 19 17 17 15 13 13 11 10 11 12 12 12 13 14 14 13 14 13 13 13 14 14 14 14 15 16 17 16 16 16 17 17 17 19 19 21 21 21 21 23
18 18 17 15 15 16 14 12 11 11 14 13 12 12 11 12 14 14 15 15 14 13 13 13 13 14 15 15 15 16 17 17 17 17 17 18 18 19 19 20 20 21 23
16 16 16 15 15 16 15 15 12 13 14 14 13 12 9 10 12 12 14 14 13 13 12 13 13 13 14 14 15 15 16 16 17 17 17 17 17 18 19 20 21 24 24
17 13 15 16 16 17 16 16 15 15 14 13 13 13 13 14 15 13 14 13 13 13 13 12 12 13 13 13 14 15 15 16 17 18 19 19 19 20 20 20 21 22 23
18 16 13 16 16 15 15 14 13 13 14 15 13 12 11 15 17 15 15 15 13 13 13 13 13 13 13 14 14 14 15 16 17 17 18 18 18 18 19 19 20 21 21
19 16 13 14 14 13 13 14 13 14 15 16 18 17 13 17 18 18 17 16 14 13 13 14 16 13 13 14 15 15 16 16 17 18 18 18 18 18 17 17 19 19 20
18 16 14 14 14 16 14 15 15 15 17 17 16 16 18 19 20 18 19 16 14 14 14 14 15 17 14 15 14 14 14 18 20 19 18 19 19 16 16 15 16 17 17
15 16 16 17 18 16 19 18 18 18 17 18 18 18 18 19 19 20 17 14 14 14 14 15 16 14 13 14 16 16 16 19 20 22 20 17 17 17 15 13 12 13 14
15 17 18 18 18 17 16 18 18 18 20 19 19 19 20 20 20 19 19 17 18 17 17 16 15 15 14 13 13 14 15 17 19 19 18 17 16 15 14 13 12 13 13
Wind_Direction
295 290 287 278 268 260 258 254 257 257 257 252 254 252 243 224 215 210 207 204 202 202 200 196 193 187 189 190 187 206 266 280 282 311 316 323 321 326 326 334 341 346 348
295 292 294 281 268 262 257 257 257 257 258 256 256 254 249 243 233 219 216 209 204 200 198 196 184 169 176 173 169 203 281 289 288 309 314 308 325 333 335 337 346 353 1
296 297 295 286 269 261 259 258 258 257 258 257 255 256 252 250 242 231 221 215 209 204 202 200 194 185 175 171 182 317 302 309 308 310 316 321 326 337 349 341 340 348 355
296 296 296 293 275 263 259 258 256 258 259 260 255 257 259 259 255 247 240 229 217 217 218 218 210 207 200 194 252 295 300 313 316 313 315 320 330 333 343 351 336 339 354
296 295 294 294 287 268 258 255 257 259 262 259 260 257 257 261 260 259 254 244 242 234 238 238 238 238 235 245 281 305 309 308 313 313 315 320 322 331 335 340 352 340 338
297 299 301 294 290 279 264 258 257 259 262 260 261 261 258 261 263 261 258 258 259 258 254 255 266 259 253 247 263 312 305 308 309 313 314 317 318 325 328 333 343 346 348
296 299 305 298 294 281 272 261 259 260 262 262 264 265 267 267 267 266 264 264 270 261 259 256 259 269 262 269 268 284 295 293 302 308 310 312 316 322 324 330 333 339 343
299 300 306 306 299 290 275 264 260 260 262 264 265 267 268 270 271 273 272 269 270 272 269 264 256 266 265 269 278 279 288 290 288 296 301 311 314 315 319 323 328 335 338
298 302 305 310 303 294 288 278 268 262 264 265 268 270 270 273 273 273 274 274 269 272 268 263 263 264 265 261 277 280 285 293 291 285 292 300 304 310 313 316 319 327 328
297 304 310 312 303 303 298 288 281 272 267 268 271 273 274 276 279 278 277 274 272 270 269 269 269 271 268 263 271 279 282 289 293 291 289 288 291 294 296 300 307 309 312
295 302 306 311 310 306 312 304 289 278 278 275 275 279 283 284 282 283 280 279 275 272 273 271 271 269 272 274 263 281 281 286 291 293 290 289 289 288 289 291 293 299 304
295 303 297 295 308 319 325 321 322 302 289 284 283 287 290 289 292 292 291 282 282 277 273 275 275 272 273 275 277 280 284 289 292 290 288 289 292 291 290 291 295 296 298
306 296 298 301 305 318 321 344 351 343 313 302 294 285 292 294 299 303 306 294 285 285 283 283 283 277 277 283 282 282 286 289 287 282 284 288 294 295 297 294 296 298 300
289 292 297 303 311 314 329 330 346 359 359 345 333 312 301 295 301 306 307 324 317 310 302 293 286 288 288 288 287 292 297 296 290 288 286 287 292 294 292 298 297 302 300
292 291 292 301 313 328 324 325 340 345 328 339 349 351 329 319 315 312 311 317 320 326 335 326 298 292 296 297 298 302 302 307 301 296 291 285 290 286 293 296 297 300 301
290 288 292 296 306 308 312 333 343 354 358 8 7 13 10 7 354 345 337 326 320 312 313 320 313 309 306 309 303 308 309 307 301 300 298 299 289 292 299 305 306 302 302
295 296 293 296 301 300 304 305 335 331 330 333 345 350 357 7 358 353 353 348 335 315 313 320 319 323 329 329 327 323 324 327 316 318 319 313 310 308 310 309 308 307 307
305 297 285 293 308 313 319 319 319 327 339 334 327 335 339 345 340 346 344 338 345 349 340 334 331 330 332 333 333 330 339 339 337 334 334 332 325 321 317 314 315 313 313
303 298 294 306 311 315 326 335 334 328 314 323 338 338 337 333 335 335 326 333 338 347 349 352 352 350 349 355 357 353 349 348 348 346 341 337 335 332 329 326 323 320 318
313 310 308 312 316 316 316 316 332 328 323 320 328 332 347 340 338 341 337 342 343 348 356 354 355 1 2 6 7 13 17 13 12 12 10 6 1 354 345 337 332 326 322
306 330 313 310 317 314 316 309 315 317 326 331 332 320 311 313 317 327 329 336 337 334 340 354 358 359 2 6 5 8 11 9 15 12 9 10 7 3 359 353 346 340 333
309 309 328 311 316 324 321 324 326 323 319 315 325 333 328 307 303 318 315 316 328 336 339 341 344 348 345 344 354 2 11 6 8 12 12 10 11 11 9 5 2 358 352
291 302 317 318 319 332 334 326 325 317 312 309 303 305 323 299 296 299 308 315 325 332 327 327 319 338 340 342 346 352 352 356 358 357 358 359 0 2 9 9 3 3 1
288 295 306 312 319 308 323 319 317 316 307 311 317 315 301 294 293 305 304 315 319 323 325 325 324 321 332 335 341 345 350 344 342 345 350 349 349 359 1 5 7 7 6
306 301 299 298 301 310 301 307 308 307 311 308 307 307 307 305 304 303 313 320 323 323 322 320 323 327 329 330 329 333 339 337 336 334 340 346 346 346 352 359 2 2 2
314 303 296 298 303 305 308 307 308 307 302 304 305 306 306 309 316 319 317 317 313 314 316 318 320 321 325 327 326 329 333 335 335 337 340 340 340 345 348 351 356 354 354